STARLINK-5347, 57137

Orbit data source: Space-Track

STARLINK-5347, 57137 is a payload satellite owned by SpaceX/Seattle (US) in LEO that was launched on Fri, 23 Jun 2023 UTC via an FALCON 9 launch vehicle from the Air Force Eastern Test Range (AFETR). Payload-class satellites include a variety of spacecraft equipped with specific instruments for various scientific and technological missions. These include communications satellites like Starlink; space stations such as the ISS; scientific satellites like the Hubble; Earth observation satellites from companies like Planet Labs, Umbra, and HawkEye 360; GPS; miniature CubeSats for education and research; and military/defense satellites.

Loading next visibility...
Identifier
57137, 2023-090AN
Orbit
LEO
Country
Flag of USUS
Related business
Manufacturer
SpaceX/Seattle
Mission
Operational Commercial Communications
Bus & Motor
STARLINK, Unknown motor
Mass
305 kg wet, ~290 kg dry
Launch date (UTC)
2023-06-23 (3 years ago)
Launch vehicle
FALCON 9
Launch site
Air Force Eastern Test Range (AFETR)
Object type
Payload
Rocket body
Debris
Shape & HBR
Box + 1 Pan, 10.1 m
Radar Cross Section
11.087 m², Large (>1 m²)

Expand to show TLE details & history
Last TLE update: 2 days ago

TLE from 2 days ago
0 STARLINK-5347
1 57137U 23090AN  26170.99492750  .00001001  00000-0  45908-4 0  9990
2 57137  43.0026  45.2394 0001443 252.5485 107.5209 15.27582753166002
Epoch: 2026-06-19T23:52Z
TLE epoch observation values (Epoch: 2026-06-19T23:52:41.735Z)
Latitude
-0.00004°
Longitude
138.84955°
Altitude
483.115 km
Speed
7.625 km/s
True Right ascension
03h 00m 57s
True Declination
0° 00' 00"
Sunlit
Object was in daylight at epoch
Visualization orbit readout
Latitude
Unknown
Longitude
Unknown
Altitude
Unknown
Speed
Unknown
Apparent Right ascension
Unknown
Apparent Declination
Unknown
Sunlit
N/A
Visualization observer readout
Local Sidereal Time
21:42:58
Azimuth
Unknown
Elevation
Unknown
Doppler factor
Unknown
Orbital elements
Apogee altitude
485.976 km
Perigee altitude
483.995 km
Semi-major axis
6,863.123 km
Eccentricity
0.00014
Inclination
43.0026°
RAAN
45.2394°
Arg. of periapsis
252.5485°
True anomaly
107.53667°
Mean anomaly
107.5209°
Eccentric anomaly
107.52878°
Mean motion
3.81734 °/min
Orbital period
94.31 mins
BSTAR
0.000045908
Loading maneuver chart data...
Computing Atmospheric mass density...
Loading historical data...
Loading historical data...
Loading historical data...
Loading historical data...
Loading historical data...
Loading historical data...
Loading historical data...

Documentation

Showing up to 5 results
|